Weather History for KVLL - March, 2013

Change the Weather History Date:

Tuesday, March 5, 2013

  Actual Average (KDET) Record (KDET)
Temperature  
Mean Temperature 29 °F -  
Max Temperature 36 °F 40 °F 68 °F (2004)
Min Temperature 22 °F 27 °F 9 °F (2015)
Degree Days  
Heating Degree Days 36    
Moisture  
Dew Point 21 °F    
Average Humidity 70    
Maximum Humidity 84    
Minimum Humidity 56    
Precipitation  
Precipitation 0.00 in - - ()
Sea Level Pressure  
Sea Level Pressure 30.00 in    
Wind  
Wind Speed 6 mph (ENE)    
Max Wind Speed 16 mph    
Max Gust Speed 23 mph    
Visibility 10 miles    
Events      
Averages and records for this station are not official NWS values.
T = Trace of Precipitation, MM = Missing Value Source: NWS Daily Summary

Daily Weather History Graph

Daily Weather History Graph

Search for Another Location

Airport or City:

Trip Planner

Search our weather history database for the weather conditions in past years. The results will help you decide how hot, cold, wet, or windy it might be!

Date:

Astronomy

Mar. 05, 2013 Rise Set
Actual Time 7:01 AM EST 6:27 PM EST
Civil Twilight 6:33 AM EST 6:55 PM EST
Nautical Twilight 6:00 AM EST 7:28 PM EST
Astronomical Twilight 5:27 AM EST 8:01 PM EST
Moon 2:17 AM EST (3/5) 12:00 PM EST (3/5)
Length of Visible Light 12h 22m
Length of Day
11h 26m
Last Quarter, 41% of the Moon is Illuminated
Mar 5
Last Quarter
Mar 11
New
Mar 19
First Quarter
Mar 27
Full
Apr 3
Last Quarter

Hourly Weather History & Observations

Time (EST) Temp. Windchill Dew Point Humidity Pressure Visibility Wind Dir Wind Speed Gust Speed Precip Events Conditions
12:14 AM 25.0 °F - 15.1 °F 66% 30.15 in 10.0 mi Calm Calm - N/A   Clear
12:34 AM 24.6 °F - 15.6 °F 69% 30.15 in 10.0 mi Calm Calm - N/A   Clear
12:54 AM 24.6 °F - 15.1 °F 67% 30.15 in 10.0 mi Calm Calm - N/A   Clear
1:34 AM 24.4 °F - 15.4 °F 69% 30.15 in 10.0 mi Calm Calm - N/A   Clear
1:55 AM 23.7 °F 19.3 °F 15.4 °F 71% 30.15 in 10.0 mi NE 3.5 mph - N/A   Clear
2:14 AM 23.0 °F - 15.3 °F 72% 30.15 in 10.0 mi Calm Calm - N/A   Clear
2:34 AM 23.0 °F - 15.6 °F 73% 30.14 in 10.0 mi Calm Calm - N/A   Clear
2:54 AM 23.0 °F - 15.8 °F 74% 30.13 in 10.0 mi Calm Calm - N/A   Clear
3:14 AM 22.5 °F 17.8 °F 15.6 °F 75% 30.13 in 10.0 mi NE 3.5 mph - N/A   Clear
3:54 AM 22.8 °F 16.7 °F 17.1 °F 79% 30.12 in 10.0 mi ENE 4.6 mph - N/A   Mostly Cloudy
4:14 AM 22.8 °F 16.7 °F 17.6 °F 80% 30.11 in 10.0 mi NE 4.6 mph - N/A   Scattered Clouds
4:34 AM 22.1 °F 17.4 °F 17.6 °F 83% 30.11 in 10.0 mi NE 3.5 mph - N/A   Clear
4:54 AM 22.1 °F 15.9 °F 18.0 °F 84% 30.11 in 10.0 mi NE 4.6 mph - N/A   Mostly Cloudy
5:14 AM 23.0 °F 15.8 °F 18.5 °F 83% 30.10 in 10.0 mi ENE 5.8 mph - N/A   Overcast
5:34 AM 23.9 °F - 19.0 °F 82% 30.10 in 10.0 mi Calm Calm - N/A   Overcast
5:55 AM 24.4 °F 18.6 °F 19.4 °F 81% 30.10 in 10.0 mi ENE 4.6 mph - N/A   Overcast
6:14 AM 24.8 °F - 19.8 °F 81% 30.10 in 10.0 mi Calm Calm - N/A   Overcast
6:34 AM 25.3 °F 19.7 °F 20.3 °F 81% 30.09 in 10.0 mi ENE 4.6 mph - N/A   Overcast
7:35 AM 26.1 °F 18.4 °F 20.3 °F 79% 30.09 in 10.0 mi East 6.9 mph - N/A   Mostly Cloudy
7:54 AM 26.6 °F 18.2 °F 21.0 °F 79% 30.08 in 10.0 mi ENE 8.1 mph - N/A   Scattered Clouds
8:14 AM 26.8 °F 18.5 °F 21.4 °F 80% 30.08 in 10.0 mi ENE 8.1 mph - N/A   Clear
8:35 AM 27.5 °F 19.3 °F 21.2 °F 77% 30.08 in 10.0 mi ENE 8.1 mph - N/A   Clear
8:54 AM 28.4 °F 19.1 °F 20.5 °F 72% 30.08 in 10.0 mi ENE 10.4 mph - N/A   Clear
9:14 AM 29.1 °F 19.4 °F 19.8 °F 68% 30.08 in 10.0 mi East 11.5 mph 16.1 mph N/A   Scattered Clouds
9:34 AM 29.8 °F 20.9 °F 18.7 °F 63% 30.07 in 10.0 mi East 10.4 mph 17.3 mph N/A   Scattered Clouds
9:54 AM 30.6 °F 21.2 °F 18.7 °F 61% 30.07 in 10.0 mi ENE 11.5 mph 17.3 mph N/A   Clear
10:15 AM 31.5 °F 22.9 °F 19.2 °F 61% 30.07 in 10.0 mi East 10.4 mph 17.3 mph N/A   Clear
10:34 AM 32.0 °F 24.8 °F 19.2 °F 59% 30.06 in 10.0 mi East 8.1 mph 16.1 mph N/A   Clear
10:54 AM 32.4 °F 23.0 °F 20.1 °F 61% 30.05 in 10.0 mi East 12.7 mph 16.1 mph N/A   Clear
11:14 AM 32.4 °F 24.6 °F 21.0 °F 63% 30.04 in 10.0 mi ESE 9.2 mph 17.3 mph N/A   Clear
11:34 AM 32.9 °F 24.1 °F 20.8 °F 61% 30.03 in 10.0 mi East 11.5 mph 16.1 mph N/A   Clear
11:55 AM 33.3 °F 27.1 °F 21.2 °F 61% 30.04 in 10.0 mi East 6.9 mph - N/A   Clear
12:14 PM 33.8 °F 25.8 °F 21.4 °F 60% 30.03 in 10.0 mi East 10.4 mph - N/A   Scattered Clouds
12:34 PM 34.5 °F 25.7 °F 21.4 °F 59% 30.01 in 10.0 mi East 12.7 mph - N/A   Mostly Cloudy
1:14 PM 35.8 °F 29.4 °F 22.5 °F 58% 30.00 in 10.0 mi East 8.1 mph - N/A   Clear
1:35 PM 35.6 °F 28.0 °F 22.1 °F 58% 29.98 in 10.0 mi East 10.4 mph 16.1 mph N/A   Clear
1:54 PM 35.8 °F 27.8 °F 22.6 °F 59% 29.96 in 10.0 mi ENE 11.5 mph 18.4 mph N/A   Clear
2:15 PM 36.0 °F 28.5 °F 22.6 °F 58% 29.95 in 10.0 mi ENE 10.4 mph 20.7 mph N/A   Clear
2:34 PM 35.8 °F 27.8 °F 22.8 °F 59% 29.94 in 10.0 mi ENE 11.5 mph 18.4 mph N/A   Clear
2:54 PM 36.5 °F 27.8 °F 22.8 °F 58% 29.93 in 10.0 mi East 13.8 mph 17.3 mph N/A   Clear
3:14 PM 36.7 °F 28.4 °F 22.6 °F 57% 29.92 in 10.0 mi East 12.7 mph 18.4 mph N/A   Clear
3:34 PM 36.7 °F 28.4 °F 22.8 °F 57% 29.91 in 10.0 mi East 12.7 mph 21.9 mph N/A   Clear
3:54 PM 36.5 °F 27.4 °F 22.3 °F 56% 29.89 in 10.0 mi East 15.0 mph 23.0 mph N/A   Clear
4:14 PM 36.7 °F 27.6 °F 22.3 °F 56% 29.89 in 10.0 mi ENE 15.0 mph 20.7 mph N/A   Clear
4:34 PM 36.5 °F 27.0 °F 22.1 °F 56% 29.88 in 10.0 mi East 16.1 mph 23.0 mph N/A   Clear
4:54 PM 35.8 °F 26.5 °F 22.6 °F 59% 29.87 in 10.0 mi ENE 15.0 mph 19.6 mph N/A   Clear
5:15 PM 34.9 °F 26.2 °F 23.5 °F 63% 29.87 in 10.0 mi ENE 12.7 mph 18.4 mph N/A   Scattered Clouds
5:34 PM 34.7 °F 25.9 °F 23.7 °F 64% 29.87 in 10.0 mi ENE 12.7 mph 17.3 mph N/A   Scattered Clouds
5:55 PM 33.8 °F 25.3 °F 23.9 °F 67% 29.88 in 10.0 mi NE 11.5 mph - N/A   Mostly Cloudy
6:14 PM 33.1 °F 25.5 °F 23.9 °F 69% 29.89 in 10.0 mi NNE 9.2 mph 17.3 mph N/A   Mostly Cloudy
6:34 PM 32.0 °F 21.2 °F 23.9 °F 72% 29.89 in 10.0 mi NE 16.1 mph - N/A   Scattered Clouds
6:55 PM 31.8 °F 22.8 °F 23.7 °F 72% 29.88 in 10.0 mi NNE 11.5 mph 18.4 mph N/A   Clear
7:14 PM 31.1 °F 21.4 °F 23.4 °F 73% 29.88 in 10.0 mi NE 12.7 mph 21.9 mph N/A   Clear
7:34 PM 30.7 °F 19.6 °F 23.0 °F 73% 29.89 in 10.0 mi NE 16.1 mph 20.7 mph N/A   Clear
7:55 PM 30.0 °F 21.7 °F 23.0 °F 75% 29.89 in 10.0 mi NNE 9.2 mph 19.6 mph N/A   Scattered Clouds
8:14 PM 29.3 °F 18.2 °F 22.8 °F 77% 29.88 in 10.0 mi NNE 15.0 mph 20.7 mph N/A   Clear
8:34 PM 29.3 °F 18.6 °F 22.8 °F 77% 29.87 in 10.0 mi NNE 13.8 mph 19.6 mph N/A   Clear
8:54 PM 29.1 °F 20.0 °F 23.0 °F 78% 29.87 in 10.0 mi NE 10.4 mph 18.4 mph N/A   Clear
9:14 PM 29.1 °F 18.9 °F 23.0 °F 78% 29.86 in 10.0 mi NNE 12.7 mph 18.4 mph N/A   Clear
9:34 PM 29.1 °F 18.4 °F 23.0 °F 78% 29.87 in 10.0 mi NNE 13.8 mph 18.4 mph N/A   Clear
9:54 PM 29.1 °F 18.4 °F 23.2 °F 78% 29.87 in 10.0 mi NNE 13.8 mph 19.6 mph N/A   Clear
10:14 PM 29.1 °F 21.3 °F 23.0 °F 78% 29.87 in 10.0 mi NNE 8.1 mph 16.1 mph N/A   Clear
10:34 PM 29.1 °F 19.4 °F 22.8 °F 77% 29.87 in 10.0 mi NNE 11.5 mph 16.1 mph N/A   Clear
10:55 PM 29.1 °F 20.0 °F 22.8 °F 77% 29.87 in 10.0 mi NNE 10.4 mph 17.3 mph N/A   Clear
11:14 PM 29.1 °F 20.6 °F 23.0 °F 78% 29.87 in 10.0 mi NNE 9.2 mph 16.1 mph N/A   Clear
11:35 PM 29.1 °F 20.6 °F 22.8 °F 77% 29.87 in 10.0 mi NNE 9.2 mph 16.1 mph N/A   Clear
11:54 PM 29.1 °F 20.0 °F 22.6 °F 77% 29.87 in 10.0 mi NNE 10.4 mph 17.3 mph N/A   Clear